Vertical_Velocity
-2 -2 -2 -2 -1 -1 -0 -1 -2 -3 -2 -1 -2 -2 -1 -0 -1 -2 -1 -0 -0 -1 -1 -0 -2 2 -0 -2 -2 -1 -1 -5 -6 1 1 4 3 -9 -8 -29 0 23 -1 44 29
-2 -2 -1 -2 -3 -2 -1 -1 -1 -1 -1 -2 -3 -2 -2 -2 -2 1 -1 -1 -2 -1 -1 -1 -1 -2 -0 0 -3 -1 -3 -4 -6 10 -3 5 3 3 -14 -7 -16 -9 33 85 10
-1 -1 -2 -2 -1 -1 -2 -2 -2 -2 -1 0 -1 -2 -3 -2 -2 -3 -0 -1 -2 -2 -2 -1 0 -2 -1 1 -0 -3 -5 2 -7 4 -2 -3 -1 8 -10 -10 -12 22 48 115 12
-2 -1 -1 -1 -1 -0 -1 -1 -2 -2 -2 -2 -1 0 -3 -3 -2 0 -4 -2 -1 -1 -2 -1 -1 -0 -1 -1 0 -5 -6 -2 -2 2 -1 -1 -16 -5 -10 7 -8 -11 1 -25 142
-0 -0 -1 -1 -1 -1 -1 -2 -1 -2 0 -0 -1 -2 -2 -1 2 -2 -1 -1 -2 -1 -1 -2 -1 -2 -0 -2 -2 -3 1 -0 -6 -2 -0 -6 -8 10 7 -13 -10 -30 -42 19 18
-1 -1 -2 -2 -1 -0 -0 -0 -1 -1 -1 -0 -0 -3 -2 0 -5 0 3 -1 -1 -1 -1 -3 -1 -1 0 -2 0 2 -5 0 -6 -3 -4 -9 -7 -12 7 19 3 -15 -11 14 9
-1 -2 -1 1 -0 -1 -0 -2 -1 -1 -1 -1 -0 -2 -5 16 -5 2 -2 1 -0 -1 -1 -1 -2 0 -1 3 -4 0 -8 1 -1 0 -9 6 -5 -19 -1 -9 -7 -6 1 6 -11
-2 -1 -0 -2 -1 -2 -2 0 -2 -1 -1 -0 -1 -5 -4 -1 2 -5 3 -0 3 -0 -0 -1 -1 0 -0 1 0 0 -3 -5 0 -0 -5 -0 -16 5 11 15 -5 3 12 -7 4
-0 -2 -1 -0 -1 -2 -0 -0 -1 -1 -2 -2 -1 1 -3 0 -1 -1 1 3 2 2 0 -1 -2 -1 -1 0 -1 2 -3 -2 -3 -6 -1 -1 -13 -4 7 3 -7 -10 3 1 16
-2 -0 -1 -0 -0 -0 1 -1 -1 -2 -0 0 -4 -0 0 -0 2 -1 -2 -2 -0 5 2 1 -2 -1 -0 -1 -4 0 2 0 2 1 6 12 -3 -5 -2 -0 -6 -3 0 8 14
-2 -1 -1 -3 -0 -1 0 1 1 -3 -1 2 -2 -0 0 -1 -2 0 1 -1 -2 -2 0 4 -3 -8 2 -1 -0 0 -1 1 -1 4 6 -7 -4 -8 -3 -4 -7 -6 -4 -3 6
-0 -1 -0 1 -2 -2 -2 -1 -2 -1 -17 4 4 -8 2 -0 2 4 3 3 -0 -3 3 0 -14 3 1 -1 2 6 0 -6 -5 -2 5 -3 -14 -7 -8 -7 -1 -8 -17 -2 1
-3 -1 -1 -0 0 -1 -0 -2 -1 -3 -0 -16 1 3 5 3 1 6 4 6 2 3 -2 -1 2 -3 0 1 2 1 -3 -1 -0 -2 -1 -2 -18 -10 4 -16 2 -4 7 1 9
-2 -1 -2 3 -2 0 -1 1 -0 -4 -4 -6 0 -3 0 -0 -6 8 -0 5 1 -0 4 2 -3 -2 -1 -3 3 -0 0 1 -1 0 -4 4 -13 -13 -2 3 -10 -6 -3 -5 -1
-3 -3 3 -6 -0 -0 -1 -3 -3 -2 -4 -4 -1 0 2 1 -0 -1 0 2 -0 2 1 -7 -1 2 3 -6 5 -8 2 1 2 -2 0 -9 5 -21 -0 -3 1 1 -6 -3 -9
-1 -2 -2 -5 1 -2 -1 -3 -1 0 -18 -2 0 -1 -1 0 0 -2 -2 1 2 5 2 -8 5 3 0 1 2 1 2 -0 0 1 1 -3 2 -9 -4 -0 1 -1 -8 1 6
1 0 -4 -2 -0 3 1 1 1 -1 3 1 0 1 -1 -1 -0 2 1 -2 -3 -1 -2 11 -12 3 4 5 3 1 2 -1 0 3 -8 4 6 -16 4 -4 1 5 3 -10 -3
2 3 4 2 0 2 4 8 7 0 -4 0 -1 -1 -4 3 -2 0 1 -1 -3 2 3 -1 -4 8 -7 -10 -1 -7 -1 -7 -5 -2 -4 2 -5 -9 1 3 -2 -2 2 6 -2
-4 1 0 7 2 4 7 4 -12 -4 3 7 7 2 -3 -5 9 -1 0 -0 -1 1 -9 -1 -4 -2 -5 6 5 -2 -2 6 -0 2 1 -3 -2 -4 1 -2 0 -2 -0 0 4
-5 -1 -2 -1 3 9 12 -3 -1 -1 16 13 8 8 4 4 5 3 -2 -0 0 -1 6 4 1 -1 1 4 13 3 4 0 3 -1 -0 -3 -2 -11 -0 -2 -3 -2 -4 -2 -3
-5 -4 -2 1 1 9 -2 -0 -2 3 20 23 11 5 2 0 14 1 5 5 6 -3 2 8 9 -3 12 3 -19 -3 0 -2 5 1 -5 -2 -8 -1 7 3 0 -0 2 1 1
-5 -6 0 2 3 12 6 14 10 4 -5 -8 6 2 11 9 -6 13 -1 1 22 38 7 -15 3 -0 -26 -6 3 14 9 7 -1 0 -1 2 -5 1 6 6 5 7 2 1 1
-11 -8 3 1 3 5 -1 4 12 -2 -1 -6 2 8 8 2 2 -2 2 14 10 4 -4 -5 3 3 1 8 13 5 -4 -2 5 4 -2 -2 -5 -3 6 8 9 9 5 1 1
-3 -8 0 6 3 2 -6 -4 -5 7 -1 4 0 3 -2 6 13 8 0 1 9 7 -11 42 1 4 -14 -1 -1 -4 -7 -5 5 10 -6 -10 -2 -3 4 3 4 4 -1 1 7
-4 1 6 -16 -9 1 11 4 3 -5 1 5 8 -11 -10 -9 -14 12 2 -3 12 -1 5 9 5 8 -2 1 15 -5 6 11 11 3 -2 6 1 -2 -3 -1 16 4 2 -3 4
-0 -2 -2 -2 0 -10 8 -1 9 -7 5 -3 5 2 1 -2 -5 -17 -6 4 -10 6 -1 7 -1 10 -17 -2 -1 2 3 1 -1 -3 4 7 -15 18 11 2 5 -3 -0 1 -5
3 5 5 -6 -4 -0 5 2 -2 -2 7 4 -8 -2 2 1 -0 -4 -5 -3 -13 -7 2 -10 6 -4 -5 6 16 10 -6 2 -6 28 3 3 9 -7 -1 -1 -6 -6 -0 -1 -2
Height
3133 3132 3131 3130 3129 3128 3127 3125 3124 3123 3121 3120 3118 3117 3116 3115 3114 3113 3113 3113 3113 3111 3111 3110 3109 3108 3107 3106 3106 3106 3106 3103 3103 3105 3105 3106 3104 3101 3100 3103 3105 3099 3103 3113 3113
3130 3129 3128 3127 3126 3124 3123 3122 3121 3120 3118 3116 3115 3115 3114 3112 3111 3111 3110 3109 3109 3108 3108 3107 3106 3104 3104 3103 3103 3104 3103 3101 3102 3104 3102 3101 3099 3098 3097 3095 3102 3097 3096 3083 3106
3127 3125 3124 3123 3122 3121 3120 3118 3117 3116 3114 3113 3112 3110 3109 3109 3109 3108 3107 3107 3106 3105 3105 3104 3103 3102 3102 3101 3100 3100 3099 3100 3100 3100 3099 3098 3095 3094 3094 3093 3096 3098 3079 3079 3098
3124 3122 3121 3120 3119 3117 3116 3114 3113 3112 3110 3109 3108 3107 3105 3106 3108 3105 3104 3104 3103 3102 3102 3101 3101 3100 3099 3099 3098 3097 3097 3097 3097 3097 3096 3094 3093 3092 3091 3089 3086 3092 3081 3083 3077
3120 3119 3117 3116 3115 3113 3112 3110 3108 3107 3106 3104 3103 3102 3102 3102 3103 3101 3100 3100 3100 3100 3099 3099 3098 3097 3096 3096 3095 3094 3095 3094 3093 3093 3092 3089 3086 3085 3094 3089 3089 3091 3084 3078 3081
3116 3115 3113 3112 3110 3109 3107 3106 3104 3103 3101 3100 3098 3097 3097 3098 3097 3097 3097 3096 3096 3096 3096 3095 3095 3095 3094 3093 3093 3093 3091 3090 3090 3089 3087 3085 3082 3081 3080 3093 3084 3090 3091 3087 3085
3112 3111 3109 3108 3106 3104 3103 3102 3100 3098 3097 3095 3093 3092 3092 3095 3091 3092 3093 3092 3092 3091 3092 3092 3092 3092 3090 3091 3089 3089 3088 3087 3086 3085 3083 3082 3078 3077 3078 3080 3083 3080 3080 3087 3086
3108 3106 3104 3103 3101 3099 3098 3097 3095 3093 3092 3090 3088 3087 3087 3087 3087 3085 3086 3086 3087 3087 3088 3088 3088 3088 3087 3087 3086 3086 3086 3085 3084 3083 3082 3080 3071 3076 3080 3081 3079 3078 3082 3089 3090
3103 3101 3099 3097 3096 3094 3093 3091 3089 3088 3087 3085 3083 3082 3082 3081 3081 3080 3080 3081 3082 3083 3084 3084 3084 3084 3085 3084 3083 3082 3082 3084 3082 3081 3080 3079 3074 3073 3074 3075 3078 3078 3079 3081 3085
3098 3097 3095 3093 3091 3089 3086 3085 3083 3082 3081 3080 3077 3079 3077 3077 3077 3077 3077 3077 3078 3079 3080 3080 3080 3079 3080 3080 3079 3079 3079 3079 3080 3081 3078 3076 3074 3074 3073 3072 3071 3072 3075 3079 3083
3093 3091 3090 3088 3086 3084 3083 3081 3080 3077 3075 3075 3073 3072 3071 3072 3072 3072 3073 3073 3074 3074 3076 3076 3075 3073 3077 3077 3077 3077 3076 3074 3075 3077 3075 3072 3067 3067 3070 3069 3067 3067 3069 3072 3079
3088 3086 3084 3083 3082 3079 3078 3075 3073 3070 3065 3068 3067 3064 3063 3064 3063 3064 3067 3068 3067 3067 3071 3071 3066 3071 3072 3073 3072 3074 3073 3071 3070 3072 3070 3068 3062 3061 3061 3061 3065 3066 3065 3068 3073
3083 3081 3079 3077 3077 3075 3073 3071 3067 3063 3058 3058 3057 3053 3055 3054 3054 3057 3060 3062 3061 3063 3064 3063 3065 3065 3066 3067 3068 3068 3069 3069 3068 3068 3066 3063 3053 3051 3051 3052 3055 3057 3060 3063 3066
3079 3077 3074 3073 3074 3070 3068 3065 3063 3060 3053 3048 3046 3044 3045 3045 3047 3050 3051 3057 3056 3057 3060 3057 3058 3059 3062 3063 3065 3064 3065 3066 3066 3066 3064 3063 3056 3046 3047 3047 3049 3049 3052 3055 3059
3075 3073 3071 3068 3068 3067 3065 3061 3060 3060 3057 3045 3044 3043 3042 3045 3044 3044 3046 3048 3049 3052 3056 3052 3052 3053 3054 3055 3060 3060 3062 3063 3064 3064 3062 3058 3061 3041 3043 3043 3042 3045 3047 3049 3052
3069 3067 3067 3064 3065 3062 3060 3058 3058 3061 3050 3042 3040 3039 3040 3040 3041 3040 3042 3044 3046 3048 3047 3046 3050 3050 3051 3052 3054 3056 3058 3060 3061 3062 3060 3051 3054 3042 3042 3042 3041 3041 3043 3046 3047
3063 3061 3058 3059 3058 3057 3055 3054 3057 3052 3044 3038 3036 3036 3036 3036 3037 3037 3038 3039 3041 3043 3040 3041 3040 3044 3046 3048 3050 3052 3055 3058 3061 3059 3053 3048 3049 3037 3040 3040 3042 3042 3041 3043 3044
3053 3051 3052 3050 3049 3048 3048 3048 3044 3038 3037 3034 3033 3031 3031 3033 3032 3033 3032 3032 3034 3036 3036 3034 3033 3033 3036 3038 3041 3043 3047 3049 3054 3051 3047 3044 3040 3034 3034 3037 3037 3038 3041 3040 3042
3039 3040 3039 3041 3039 3039 3039 3034 3028 3031 3032 3031 3028 3025 3024 3027 3028 3027 3026 3025 3027 3030 3031 3029 3027 3028 3030 3033 3037 3038 3039 3043 3044 3045 3045 3039 3034 3032 3031 3033 3034 3034 3036 3036 3036
3025 3026 3027 3027 3027 3028 3027 3019 3020 3024 3028 3025 3021 3021 3019 3021 3022 3021 3020 3019 3019 3022 3024 3025 3024 3024 3025 3028 3032 3033 3034 3038 3040 3042 3043 3032 3030 3026 3026 3027 3030 3031 3032 3033 3034
3018 3016 3016 3016 3018 3019 3014 3012 3014 3017 3020 3016 3015 3013 3013 3013 3015 3015 3013 3016 3016 3017 3019 3019 3020 3019 3019 3015 3021 3027 3027 3029 3029 3028 3028 3031 3024 3023 3024 3025 3027 3028 3030 3031 3031
3011 3011 3009 3007 3012 3011 3010 3010 3008 3003 3005 3004 3004 3005 3004 3005 3004 3004 3005 3009 3011 3012 3011 3010 3010 3009 3009 3013 3016 3017 3015 3019 3019 3021 3020 3020 3020 3020 3022 3023 3025 3026 3026 3027 3028
3007 3007 3004 3003 3004 3004 3002 3001 2998 2996 2996 2997 2998 2996 2995 2995 2996 2995 2996 3000 3004 3004 3003 3004 3001 3003 3002 3006 3006 3004 3008 3012 3014 3014 3012 3016 3014 3019 3019 3021 3022 3023 3023 3024 3024
3006 3004 3003 3002 3001 2999 2997 2997 2996 2996 2993 2992 2991 2990 2986 2985 2987 2984 2986 2989 2992 2992 2994 2997 2992 2990 2988 2992 2995 2998 2999 3002 3005 3005 3006 3001 3010 3013 3015 3016 3017 3018 3019 3020 3020
3006 3004 3002 3001 2999 2998 2996 2996 2993 2991 2992 2990 2989 2987 2986 2985 2982 2981 2979 2979 2982 2981 2985 2985 2975 2981 2982 2987 2989 2989 2991 2993 2994 2996 2999 2998 3002 3008 3012 3012 3012 3009 3009 3011 3011
3005 3003 3001 2999 2997 2996 2993 2992 2991 2989 2989 2987 2986 2984 2984 2982 2981 2976 2977 2977 2975 2976 2975 2979 2975 2973 2973 2977 2981 2982 2983 2985 2986 2987 2986 2989 2993 3000 3002 3001 3003 3001 3001 3002 3004
3002 3000 2996 2995 2993 2992 2992 2989 2987 2987 2987 2985 2983 2981 2980 2979 2977 2974 2972 2970 2970 2971 2971 2974 2973 2969 2966 2968 2973 2973 2974 2976 2981 2984 2981 2983 2985 2986 2988 2993 2995 2994 2995 2995 2996